Simultaneous Nadir Overpasses (SNOs) Predictions

Prediction of SNOs between NOAA-18 and METOP-C Satellite Orbit:

Table of predicted SNOs for the next 14.0 days since TLE Epoch: 5/7/2023
Index Date (NOAA-18) Time (NOAA-18) Lat,Lon (NOAA-18) SZA (NOAA-18 ) Date (METOP-C) Time (METOP-C) Lat,Lon (METOP-C) SZA (METOP-C ) Distance(km) Time Diff (sec)
1 05/10/2023 07:19:00 -81.13, -44.49 110.99 05/10/2023 07:20:11 -81.14, -44.52 110.95 0.89 71
2 05/10/2023 08:10:02 81.13, 122.96 69.04 05/10/2023 08:10:53 81.14, 122.81 69.05 2.59 51
3 05/10/2023 09:00:58 -81.13, -69.83 110.98 05/10/2023 09:01:32 -81.13, -69.65 110.94 2.98 34
4 05/10/2023 09:52:00 81.13, 97.61 69.04 05/10/2023 09:52:14 81.13, 97.68 69.06 1.19 14
5 05/10/2023 10:42:56 -81.13, -95.17 110.98 05/10/2023 10:42:54 -81.14, -95.16 110.98 0.38 2
6
